Van Vleck, TX

11:40 AM CST on February 08, 2016 (GMT -0600)
Bay City

Weather History for KBYY - October, 2013

Change the Weather History Date:

Thursday, October 3, 2013

  Actual Average (KPSX) Record (KPSX)
Temperature  
Mean Temperature 80 °F -  
Max Temperature 88 °F 85 °F - (-1)
Min Temperature 73 °F 66 °F - (-1)
Cooling Degree Days 16    
Growing Degree Days 30 (Base 50)    
Moisture  
Dew Point 75 °F    
Average Humidity 83    
Maximum Humidity 98    
Minimum Humidity 61    
Precipitation  
Precipitation 0.00 in - - ()
Sea Level Pressure  
Sea Level Pressure 29.91 in    
Wind  
Wind Speed 4 mph (SE)    
Max Wind Speed 10 mph    
Max Gust Speed -    
Visibility 9 miles    
Events      
Averages and records for this station are not official NWS values.
T = Trace of Precipitation, MM = Missing Value Source: NWS Daily Summary

Daily Weather History Graph

Daily Weather History Graph

Search for Another Location

Airport or City:

Trip Planner

Search our weather history database for the weather conditions in past years. The results will help you decide how hot, cold, wet, or windy it might be!

Date:

Astronomy

Oct. 03, 2013 Rise Set
Actual Time 7:17 AM CDT 7:06 PM CDT
Civil Twilight 6:54 AM CDT 7:30 PM CDT
Nautical Twilight 6:26 AM CDT 7:57 PM CDT
Astronomical Twilight 5:59 AM CDT 8:25 PM CDT
Moon 5:56 AM CDT (10/3) 6:13 PM CDT (10/3)
Length of Visible Light 12h 36m
Length of Day
11h 48m
Waning Crescent, 2% of the Moon is Illuminated
Oct 3
Waning Crescent
Oct 4
New
Oct 11
First Quarter
Oct 18
Full
Oct 26
Last Quarter

Hourly Weather History & Observations

Time (CDT) Temp. Heat Index Dew Point Humidity Pressure Visibility Wind Dir Wind Speed Gust Speed Precip Events Conditions
12:15 AM 76.6 °F - 75.2 °F 95% 29.93 in 10.0 mi East 3.5 mph - N/A   Clear
12:35 AM 76.8 °F - 75.4 °F 95% 29.93 in 10.0 mi ESE 3.5 mph - N/A   Clear
12:55 AM 77.2 °F - 75.7 °F 95% 29.93 in 10.0 mi ESE 3.5 mph - N/A   Clear
1:15 AM 77.0 °F - 75.6 °F 95% 29.93 in 10.0 mi ESE 3.5 mph - N/A   Clear
1:35 AM 77.0 °F - 75.6 °F 95% 29.93 in 10.0 mi ESE 3.5 mph - N/A   Clear
1:55 AM 77.0 °F - 75.6 °F 95% 29.92 in 10.0 mi ESE 4.6 mph - N/A   Clear
2:15 AM 76.6 °F - 75.2 °F 95% 29.91 in 10.0 mi ESE 3.5 mph - N/A   Clear
2:35 AM 76.8 °F - 75.2 °F 95% 29.91 in 10.0 mi ESE 3.5 mph - N/A   Clear
2:55 AM 76.8 °F - 75.2 °F 95% 29.91 in 10.0 mi Calm Calm - N/A   Clear
3:15 AM 76.5 °F - 75.0 °F 95% 29.90 in 7.0 mi ESE 3.5 mph - N/A   Clear
3:35 AM 75.9 °F - 74.7 °F 96% 29.90 in 7.0 mi Calm Calm - N/A   Clear
3:55 AM 76.3 °F - 75.0 °F 96% 29.89 in 7.0 mi ESE 3.5 mph - N/A   Clear
4:15 AM 76.3 °F - 74.8 °F 95% 29.89 in 7.0 mi East 3.5 mph - N/A   Clear
4:35 AM 76.1 °F - 75.0 °F 96% 29.89 in 7.0 mi Calm Calm - N/A   Clear
4:55 AM 75.4 °F - 74.1 °F 96% 29.89 in 5.0 mi East 3.5 mph - N/A   Clear
5:15 AM 74.8 °F - 73.8 °F 96% 29.89 in 4.0 mi Calm Calm - N/A   Clear
5:35 AM 74.8 °F - 73.9 °F 97% 29.89 in 5.0 mi Calm Calm - N/A   Scattered Clouds
5:55 AM 75.2 °F - 74.1 °F 96% 29.90 in 5.0 mi Calm Calm - N/A   Mostly Cloudy
6:15 AM 74.7 °F - 73.8 °F 97% 29.90 in 4.0 mi Calm Calm - N/A   Scattered Clouds
6:35 AM 74.5 °F - 73.6 °F 97% 29.90 in 5.0 mi Calm Calm - N/A   Clear
6:55 AM 74.3 °F - 73.4 °F 97% 29.90 in 4.0 mi East 3.5 mph - N/A   Clear
7:15 AM 73.9 °F - 73.0 °F 97% 29.90 in 4.0 mi Calm Calm - N/A   Clear
7:35 AM 73.8 °F - 73.0 °F 98% 29.90 in 4.0 mi East 3.5 mph - N/A   Clear
7:55 AM 74.5 °F - 73.8 °F 98% 29.91 in 5.0 mi Calm Calm - N/A   Scattered Clouds
8:15 AM 76.5 °F - 75.6 °F 97% 29.92 in 10.0 mi Calm Calm - N/A   Scattered Clouds
8:35 AM 78.8 °F - 77.0 °F 94% 29.93 in 10.0 mi Calm Calm - N/A   Clear
8:55 AM 81.0 °F 88.4 °F 77.7 °F 90% 29.93 in 10.0 mi SSE 3.5 mph - N/A   Clear
9:15 AM 82.6 °F 91.7 °F 77.5 °F 85% 29.94 in 10.0 mi SE 4.6 mph - N/A   Clear
9:35 AM 83.8 °F 93.9 °F 77.4 °F 81% 29.94 in 10.0 mi SSE 4.6 mph - N/A   Clear
9:55 AM 84.4 °F 93.9 °F 76.6 °F 77% 29.95 in 10.0 mi South 4.6 mph - N/A   Scattered Clouds
10:15 AM 84.0 °F 92.9 °F 76.3 °F 77% 29.95 in 10.0 mi SSE 4.6 mph - N/A   Scattered Clouds
10:35 AM 84.2 °F 93.0 °F 75.7 °F 76% 29.95 in 10.0 mi South 8.1 mph - N/A   Clear
10:55 AM 85.8 °F 94.6 °F 74.8 °F 70% 29.95 in 10.0 mi South 9.2 mph - N/A   Scattered Clouds
11:15 AM 86.7 °F 95.9 °F 74.8 °F 68% 29.95 in 10.0 mi SSW 4.6 mph - N/A   Scattered Clouds
11:35 AM 86.7 °F 95.0 °F 74.1 °F 66% 29.95 in 10.0 mi South 5.8 mph - N/A   Scattered Clouds
11:55 AM 87.4 °F 96.2 °F 74.3 °F 65% 29.95 in 10.0 mi South 8.1 mph - N/A   Scattered Clouds
12:15 PM 88.0 °F 96.5 °F 74.1 °F 63% 29.95 in 10.0 mi SSE 4.6 mph - N/A   Clear
12:35 PM 88.2 °F 96.0 °F 73.2 °F 61% 29.94 in 10.0 mi South 6.9 mph - N/A   Scattered Clouds
12:55 PM 88.5 °F 96.8 °F 73.8 °F 61% 29.93 in 10.0 mi South 5.8 mph - N/A   Scattered Clouds
1:15 PM 88.5 °F 97.3 °F 73.9 °F 62% 29.93 in 10.0 mi South 4.6 mph - N/A   Scattered Clouds
1:35 PM 87.8 °F 96.6 °F 74.3 °F 64% 29.92 in 10.0 mi South 9.2 mph - N/A   Scattered Clouds
1:55 PM 88.9 °F 98.1 °F 74.3 °F 62% 29.91 in 10.0 mi South 9.2 mph - N/A   Scattered Clouds
2:15 PM 88.5 °F 98.8 °F 75.4 °F 65% 29.90 in 10.0 mi South 6.9 mph - N/A   Scattered Clouds
2:35 PM 88.9 °F 98.6 °F 74.8 °F 63% 29.90 in 10.0 mi South 10.4 mph - N/A   Scattered Clouds
2:55 PM 88.7 °F 97.7 °F 74.1 °F 62% 29.90 in 10.0 mi South 6.9 mph - N/A   Scattered Clouds
3:15 PM 88.5 °F 97.3 °F 74.1 °F 62% 29.89 in 10.0 mi SSE 8.1 mph - N/A   Clear
3:35 PM 88.9 °F 98.6 °F 74.7 °F 63% 29.89 in 10.0 mi SSE 6.9 mph - N/A   Clear
3:55 PM 88.5 °F 97.8 °F 74.7 °F 63% 29.88 in 10.0 mi South 10.4 mph - N/A   Scattered Clouds
4:15 PM 88.3 °F 97.9 °F 74.8 °F 64% 29.88 in 10.0 mi South 9.2 mph - N/A   Clear
4:35 PM 88.0 °F 97.5 °F 74.7 °F 65% 29.88 in 10.0 mi South 9.2 mph - N/A   Scattered Clouds
4:55 PM 87.8 °F 97.1 °F 74.8 °F 65% 29.88 in 10.0 mi SSE 10.4 mph - N/A   Scattered Clouds
5:15 PM 87.3 °F 96.3 °F 74.7 °F 66% 29.88 in 10.0 mi SSE 10.4 mph - N/A   Scattered Clouds
5:35 PM 86.9 °F 95.4 °F 74.5 °F 66% 29.88 in 10.0 mi SSE 9.2 mph - N/A   Scattered Clouds
5:55 PM 86.4 °F 95.1 °F 74.5 °F 68% 29.88 in 10.0 mi SSE 9.2 mph - N/A   Scattered Clouds
6:15 PM 85.1 °F 93.3 °F 74.8 °F 71% 29.88 in 10.0 mi SE 5.8 mph - N/A   Clear
6:35 PM 83.7 °F 91.3 °F 74.8 °F 75% 29.88 in 10.0 mi SE 5.8 mph - N/A   Clear
6:55 PM 82.6 °F 89.4 °F 74.7 °F 77% 29.88 in 10.0 mi SE 5.8 mph - N/A   Clear
7:15 PM 81.0 °F 86.9 °F 75.2 °F 83% 29.88 in 10.0 mi SE 4.6 mph - N/A   Clear
7:35 PM 79.7 °F - 75.0 °F 86% 29.88 in 10.0 mi SE 4.6 mph - N/A   Clear
7:55 PM 79.3 °F - 75.0 °F 87% 29.88 in 10.0 mi ESE 3.5 mph - N/A   Clear
8:15 PM 78.8 °F - 75.2 °F 89% 29.89 in 10.0 mi ESE 4.6 mph - N/A   Clear
8:35 PM 78.3 °F - 75.2 °F 90% 29.89 in 10.0 mi ESE 3.5 mph - N/A   Clear
8:55 PM 77.9 °F - 75.2 °F 91% 29.90 in 10.0 mi ESE 4.6 mph - N/A   Clear
9:15 PM 77.4 °F - 74.8 °F 92% 29.90 in 10.0 mi ESE 5.8 mph - N/A   Clear
9:35 PM 77.4 °F - 75.0 °F 92% 29.90 in 10.0 mi ESE 4.6 mph - N/A   Clear
9:55 PM 77.7 °F - 75.2 °F 92% 29.90 in 10.0 mi ESE 4.6 mph - N/A   Scattered Clouds
10:15 PM 77.4 °F - 74.8 °F 92% 29.91 in 10.0 mi ESE 4.6 mph - N/A   Clear
10:35 PM 77.0 °F - 74.5 °F 92% 29.91 in 10.0 mi ESE 4.6 mph - N/A   Clear
11:35 PM 76.6 °F - 74.3 °F 92% 29.91 in 10.0 mi ESE 3.5 mph - N/A   Clear
11:55 PM 76.3 °F - 74.3 °F 94% 29.91 in 10.0 mi ESE 3.5 mph - N/A   Clear